RH
55 44 30 25 21 22 24 26 35 50 57 63 75 81 83 80 80 82 81 83 82 90 94 96 93 90 90 90 88 90 92 93 97 98 97 96 90 77 69 65 64 70 81 85 88 88 65 40 48 48 44 46 45 46
64 60 52 36 28 25 22 21 23 26 35 48 49 54 57 58 59 65 64 66 69 73 87 89 84 80 79 82 80 81 83 82 86 90 88 87 83 81 73 77 66 69 67 72 68 64 54 50 49 47 45 45 47 48
71 68 65 60 42 33 30 26 24 23 24 23 26 33 40 46 48 52 54 60 63 63 73 74 74 72 73 68 71 69 72 74 73 71 77 77 74 73 75 74 71 67 65 67 65 54 54 51 49 52 56 55 57 57
74 74 69 63 61 48 42 40 36 37 33 30 29 26 30 37 41 39 43 47 53 53 67 69 67 68 67 64 59 58 55 53 53 57 60 61 64 63 67 63 60 54 55 55 59 55 57 51 51 54 56 58 62 61
75 81 78 67 64 60 51 48 47 49 48 45 43 41 37 35 33 31 34 44 50 49 66 67 64 65 61 57 49 48 51 49 48 51 52 53 52 55 58 55 48 46 48 54 53 46 48 45 49 53 59 62 62 58
78 80 84 82 70 65 55 51 52 56 58 57 51 51 48 44 44 43 40 38 39 43 48 62 70 67 54 48 48 55 58 58 53 53 60 59 56 55 58 56 37 36 39 35 33 34 32 30 33 36 39 42 47 51
74 86 91 92 88 83 69 55 50 52 57 58 61 61 58 56 53 52 54 48 45 44 45 61 67 63 62 52 47 45 45 47 50 56 56 56 55 55 54 46 30 36 37 37 36 37 32 32 31 34 36 35 37 38
70 84 93 93 97 91 83 69 61 60 64 68 71 70 67 62 58 57 55 53 49 45 46 57 64 61 57 55 54 49 48 46 48 49 51 48 43 43 46 30 34 37 41 40 36 35 33 38 40 37 39 43 47 49
82 91 99 97 98 97 89 84 80 78 78 84 86 80 74 67 64 61 53 50 45 43 50 56 60 64 56 58 59 56 54 55 55 55 59 59 57 54 42 45 48 50 58 56 49 39 36 34 34 41 44 46 48 52
95 94 94 93 94 98 93 92 91 90 87 88 85 78 76 72 62 49 45 41 38 43 52 58 59 65 65 67 69 71 68 66 70 67 68 71 63 56 58 62 73 80 81 74 54 44 39 52 61 65 64 63 60 56
85 82 85 94 97 98 97 94 92 91 87 82 77 77 70 59 48 49 53 58 57 56 53 57 64 68 79 84 82 75 75 73 76 76 78 80 76 76 78 81 84 89 84 64 57 63 62 67 76 81 78 76 71 69
89 90 91 92 94 97 94 92 92 90 86 79 72 69 64 59 54 58 68 70 70 72 69 67 64 66 73 79 77 79 82 82 83 86 88 87 81 86 81 81 78 78 76 58 57 70 74 78 85 86 86 87 89 91
95 97 96 97 99 98 98 95 91 89 83 76 70 66 61 63 64 66 77 81 83 80 73 75 70 74 83 82 82 88 89 90 94 94 89 86 89 88 76 68 65 59 62 60 59 66 71 67 72 86 91 89 93 81
85 84 89 98 99 95 94 94 94 93 83 76 68 66 64 64 69 76 82 83 86 86 90 84 88 92 95 94 95 88 90 94 96 94 90 93 83 72 74 68 64 62 62 60 58 57 54 50 54 61 67 70 58 54
68 75 86 91 94 96 94 93 91 85 80 78 76 77 72 71 74 82 84 90 90 86 79 80 79 82 91 96 96 86 86 86 85 91 96 85 77 73 75 76 68 60 55 49 53 57 62 64 66 60 59 61 58 57
70 74 82 83 86 85 89 88 85 76 80 79 75 75 73 78 81 82 84 89 90 89 84 76 86 86 83 94 98 90 82 79 88 95 90 86 78 73 70 72 71 66 61 55 51 48 51 58 66 73 68 63 61 60
76 83 87 93 80 70 67 68 70 73 78 77 76 74 74 80 79 81 83 86 75 70 74 82 85 87 98 98 96 90 90 93 91 86 80 70 71 70 65 62 61 61 58 54 50 50 53 57 59 66 73 75 78 75
79 80 83 81 79 62 52 55 64 69 77 79 76 80 77 74 74 78 81 83 70 77 86 92 90 90 96 98 98 96 96 98 81 69 66 67 66 67 68 65 62 62 58 57 55 57 59 61 65 66 72 78 84 88
76 74 71 67 69 62 58 57 74 79 82 83 81 79 79 79 83 83 82 89 92 94 99 96 85 79 89 93 90 88 87 82 78 77 71 69 76 74 73 72 70 67 64 61 61 62 63 65 65 66 67 72 77 84
81 78 76 71 70 64 67 68 69 75 81 87 86 85 83 84 85 83 87 88 79 92 99 94 85 75 71 69 68 68 69 69 71 74 74 73 78 78 69 65 64 65 65 65 64 61 62 67 71 70 70 71 72 73
94 87 85 84 82 79 76 77 75 75 78 80 80 91 90 89 87 89 89 88 79 79 80 76 73 68 68 64 65 70 70 70 71 72 75 78 73 74 66 63 60 58 58 60 63 68 71 74 78 78 76 76 77 78
97 94 86 82 74 67 75 83 93 92 87 85 89 87 84 80 76 77 86 89 86 77 70 67 66 65 66 66 68 73 74 70 69 70 75 77 77 74 69 66 59 54 53 53 53 55 59 68 77 80 80 78 78 76
95 95 95 94 91 86 89 87 88 90 90 87 89 93 88 84 85 87 86 83 79 74 73 74 74 75 76 82 82 76 73 71 73 76 73 72 74 74 74 72 68 60 55 53 51 49 49 51 54 60 70 81 81 76
98 98 99 96 91 92 87 90 94 94 96 94 93 89 85 83 87 91 87 80 76 76 74 73 75 81 84 82 76 74 74 75 80 77 75 78 76 75 72 70 67 66 63 59 52 49 48 49 52 53 55 62 69 80
99 98 94 91 93 92 91 88 86 85 84 84 83 81 80 80 80 78 75 68 66 65 66 70 73 73 73 70 68 66 64 65 69 69 72 71 65 65 68 70 69 64 62 59 53 50 49 50 52 53 55 57 61 64
98 99 98 93 95 92 91 88 85 82 83 83 81 79 80 85 83 75 67 65 64 62 64 66 67 69 66 61 60 61 61 63 61 51 47 48 50 50 51 54 53 54 57 61 60 59 57 55 56 57 58 59 60 62
96 98 96 89 90 93 91 89 89 93 94 92 90 89 90 89 81 70 70 69 68 67 70 76 77 71 68 72 74 70 61 52 50 53 53 52 49 47 45 45 47 48 49 50 52 56 59 63 62 62 62 63 63 64
90 95 98 95 92 92 97 95 92 95 97 95 92 92 92 86 79 75 73 70 71 71 76 83 86 88 88 86 80 76 74 72 70 63 57 56 55 53 52 52 52 50 51 52 52 53 54 56 59 62 64 66 67 68
83 88 88 97 98 99 98 98 99 94 90 93 93 91 90 88 85 82 80 80 76 76 82 90 96 95 88 85 82 82 81 76 72 71 72 67 63 62 60 59 59 58 58 57 56 56 57 55 55 62 68 73 78 79
39 55 80 91 98 98 96 91 91 88 83 86 90 89 85 86 89 87 85 86 85 89 94 95 99 95 92 90 88 84 79 76 72 70 69 68 67 64 61 57 55 54 53 53 55 56 55 53 52 55 63 71 80 86
42 51 54 67 82 87 88 88 87 87 84 86 91 96 92 97 96 95 95 95 97 98 97 98 98 97 98 96 90 81 77 76 73 71 71 71 70 70 70 69 66 62 61 61 63 62 62 61 58 57 59 66 77 84
45 49 50 50 52 61 74 79 80 82 84 91 98 98 99 98 98 97 95 96 98 98 98 98 98 98 98 97 92 85 79 78 75 72 71 70 69 68 68 68 68 69 70 70 70 71 72 72 72 70 62 64 68 77
47 53 59 59 55 53 57 67 84 87 87 88 97 99 98 98 98 98 97 95 98 98 99 99 99 97 93 91 89 86 85 81 77 70 65 61 58 54 54 55 57 59 63 70 75 78 79 78 78 78 77 70 66 67